TimeMDT,TemperatureF,Dew PointF,Humidity,Sea Level PressureIn,VisibilityMPH,Wind Direction,Wind SpeedMPH,Gust SpeedMPH,PrecipitationIn,Events,Conditions,WindDirDegrees,DateUTC
12:53 AM,55.0,52.0,89,29.92,10.0,SW,4.6,-,N/A,,Clear,220,2013-09-10 06:53:00
1:53 AM,54.0,52.0,93,29.94,10.0,SW,5.8,-,N/A,,Clear,230,2013-09-10 07:53:00
2:53 AM,54.0,52.0,93,29.96,10.0,West,4.6,-,N/A,,Clear,260,2013-09-10 08:53:00
3:53 AM,54.0,52.0,93,29.95,10.0,South,6.9,-,N/A,,Clear,190,2013-09-10 09:53:00
4:53 AM,55.0,53.1,93,29.96,10.0,WSW,6.9,-,N/A,,Clear,240,2013-09-10 10:53:00
5:53 AM,52.0,51.1,97,29.98,8.0,WSW,3.5,-,0.01,,Clear,250,2013-09-10 11:53:00
6:53 AM,52.0,51.1,97,29.99,8.0,WSW,4.6,-,N/A,,Clear,250,2013-09-10 12:53:00
7:53 AM,55.9,54.0,93,30.00,10.0,West,3.5,-,N/A,,Clear,260,2013-09-10 13:53:00
8:53 AM,61.0,57.0,87,30.01,10.0,SW,9.2,-,N/A,,Clear,230,2013-09-10 14:53:00
9:53 AM,66.0,59.0,78,30.01,10.0,SW,8.1,-,N/A,,Clear,220,2013-09-10 15:53:00
10:53 AM,72.0,57.0,59,30.02,10.0,West,8.1,-,N/A,,Clear,260,2013-09-10 16:53:00
11:53 AM,77.0,52.0,42,30.01,10.0,West,8.1,17.3,N/A,,Clear,270,2013-09-10 17:53:00
12:53 PM,79.0,53.1,40,30.00,10.0,WSW,11.5,-,N/A,,Clear,250,2013-09-10 18:53:00
1:53 PM,82.0,52.0,35,29.99,10.0,WNW,11.5,-,N/A,,Scattered Clouds,300,2013-09-10 19:53:00
2:53 PM,82.0,50.0,33,29.98,10.0,NW,12.7,-,N/A,,Partly Cloudy,310,2013-09-10 20:53:00
3:53 PM,82.0,46.9,29,29.98,10.0,NW,9.2,-,N/A,,Partly Cloudy,320,2013-09-10 21:53:00
4:53 PM,82.9,46.0,27,29.96,10.0,North,12.7,-,N/A,,Clear,350,2013-09-10 22:53:00
5:53 PM,82.0,46.0,28,29.98,10.0,NNW,9.2,-,N/A,,Clear,340,2013-09-10 23:53:00
6:53 PM,77.0,48.9,37,30.00,10.0,NNW,5.8,-,N/A,,Clear,340,2013-09-11 00:53:00
7:53 PM,66.9,50.0,54,30.02,10.0,North,3.5,-,N/A,,Clear,350,2013-09-11 01:53:00
8:53 PM,62.1,50.0,65,30.04,10.0,Calm,Calm,-,N/A,,Clear,0,2013-09-11 02:53:00
9:53 PM,60.1,50.0,69,30.06,10.0,Calm,Calm,-,N/A,,Clear,0,2013-09-11 03:53:00
10:53 PM,57.0,50.0,77,30.06,10.0,Calm,Calm,-,N/A,,Partly Cloudy,0,2013-09-11 04:53:00
11:53 PM,57.0,50.0,77,30.07,10.0,Calm,Calm,-,N/A,,Clear,0,2013-09-11 05:53:00